Home   Weather   Viseu   Past weeks

Flag for Portugal Past Weather in Viseu, Portugal — Yesterday and Last 2 Weeks

Now
53 °F

Cool.


Feels Like: 52 °F
Forecast: 48 / 81 °F
Wind: 5 mph from North

Location: Viseu

Current Time: Sep 26, 2016 at 8:07:15 AM

Latest Report: Sep 26, 2016 at 7:00 AM


Visibility: N/A

Pressure: 30.17 "Hg

Humidity: 89%

Dew Point: 50 °F

Location of ViseuLocation

Past Weather in Viseu — Graph

°F

Viseu Temperature Yesterday

Maximum temperature yesterday: 71 °F (at 4:00 PM)
Minimum temperature yesterday: 51 °F (at 7:00 AM)
Average temperature yesterday: 61 °F

High & Low Weather Summary for the Past Weeks

 TemperatureHumidityPressure
High85 °F (Sep 11, 2:00 PM)100% (Sep 11, 6:00 AM)30.26 "Hg (Sep 11, 6:00 AM)
Low47 °F (Sep 22, 7:00 AM)25% (Sep 18, 7:00 PM)29.82 "Hg (Sep 12, 3:00 PM)
Average62 °F73%30.08 "Hg
* Reported Sep 11 6:00 AM — Sep 26 6:00 AM, Viseu, Weather by CustomWeather, © 2016

Note: Actual official high and low records may vary slightly from our data, if they occured in-between our weather recording intervals... More about our weather records

Advertising

Viseu Weather History for the Previous 24 Hours

Scroll right to see more
 ConditionsComfort  
Time TempWeatherWind HumidityBarometerVisibility
6:00 AM
Mon, Sep 26
54 °FCool.3 mph85%30.16 "HgN/A
5:00 AM55 °FCool.2 mph82%30.15 "HgN/A
4:00 AM56 °FCool.2 mph82%30.16 "HgN/A
3:00 AM55 °FCool.3 mph87%30.17 "HgN/A
2:00 AM55 °FCool.5 mph92%30.18 "HgN/A
1:00 AM55 °FCool.5 mph90%30.19 "HgN/A
12:00 AM57 °FCool.2 mph82%30.17 "HgN/A
11:00 PM
Sun, Sep 25
58 °FCool.3 mph82%30.17 "HgN/A
10:00 PM58 °FCool.3 mph85%30.17 "HgN/A
9:00 PM59 °FCool.6 mph80%30.16 "HgN/A
8:00 PM60 °FCool.7 mph72%30.15 "HgN/A
7:00 PM63 °FMild.7 mph67%30.14 "HgN/A
6:00 PM66 °FMild.6 mph65%30.12 "HgN/A
5:00 PM69 °FMild.3 mph53%30.10 "HgN/A
4:00 PM71 °FMild.5 mph41%30.10 "HgN/A
3:00 PM71 °FMild.3 mph46%30.10 "HgN/A
2:00 PM71 °FMild.2 mph52%30.13 "HgN/A
1:00 PM68 °FMild.3 mph61%30.15 "HgN/A
12:00 PM68 °FMild.3 mph63%30.16 "HgN/A
11:00 AM64 °FMild.3 mph74%30.18 "HgN/A
10:00 AM60 °FCool.5 mph87%30.19 "HgN/A
9:00 AM58 °FCool.3 mph91%30.19 "HgN/A
8:00 AM53 °FCool.5 mph100%30.21 "HgN/A
Weather by CustomWeather, © 2016

See weather overviewHow to use our weather pages